Regional Weather Roundup
Issued by NWS

Home | Current Version | Previous Version | Text Only | Print | Product List | Glossary Off
Versions: 1 2 3 4 5 6 7 8 9 10 11 12 13 14 15 16 17 18 19 20 21 22 23 24 25 26 27 28 29 30 31 32 33 34 35 36 37 38 39 40 41 42 43 44 45 46 47 48 49 50

000
ASUS43 KMPX 170201
RWRMN
WEATHER ROUNDUP FOR MINNESOTA
NATIONAL WEATHER SERVICE TWIN CITIES/CHANHASSEN MN
900 PM CDT WED AUG 16 2017


NOTE: "FAIR" INDICATES FEW OR NO CLOUDS BELOW 12,000 FEET WITH NO
SIGNIFICANT WEATHER AND/OR OBSTRUCTIONS TO VISIBILITY. N/A MEANS
CURRENT SKY AND/OR WEATHER CONDITIONS ARE NOT AVAILABLE.

MNZ060>063-068>070-170300-
   Twin Cities Metro

CITY           SKY/WX    TMP DP  RH WIND       PRES   REMARKS
TWIN CITIES    RAIN      72  68  87 SE20G25   29.63F FOG
ST PAUL        RAIN      71  70  96 E20G29    29.65F FOG
CRYSTAL        RAIN      71  66  84 E15G23    29.64F
BLAINE         LGT RAIN  73  72  94 E12G21    29.67F
LAKEVILLE      RAIN      70  70 100 E8        29.64F
EDEN PRAIRIE   LGT RAIN  71  68  90 SE9       29.64S
SOUTH ST PAUL  LGT RAIN  70  70  99 E15G24    29.64F
LAKE ELMO      RAIN      70  68  94 E12       29.69S
$$
MNZ001>005-007-008-013>017-022>024-027-028-170300-
   Northwest Minnesota

CITY           SKY/WX    TMP DP  RH WIND       PRES   REMARKS
BEMIDJI        RAIN      64  63  98 E5        29.81F
HALLOCK        CLOUDY    64  61  88 N3        29.85R
ROSEAU         CLOUDY    63  57  82 NE5       29.85S HAZE
WARROAD        CLOUDY    63  59  88 E9        29.86S
THIEF RVR FALL CLOUDY    64  63  94 NE7       29.83F
CROOKSTON      CLOUDY    64  64 100 NE5       29.82S
FOSSTON          N/A     63  63 100 N3        29.82S FOG
DETROIT LAKES  DRIZZLE   64  64 100 N3        29.80F
MOORHEAD       CLOUDY    64  63  94 N9        29.79F
PARK RAPIDS    LGT RAIN  66  63  90 E7        29.79F
MAHNOMEN       CLOUDY    64  64  99 N5        29.80F
$$
MNZ006-009>011-018-025>026-170300-
   North Central Minnesota

CITY           SKY/WX    TMP DP  RH WIND       PRES   REMARKS
BAUDETTE       CLOUDY    61  61 100 E10       29.84F
FLAG ISLAND    CLOUDY    64  59  82 E3        29.86S
INTL FALLS     LGT RAIN  61  59  93 E8        29.87S FOG
WASKISH        DRIZZLE   63  61  94 E7        29.83F
BIG FORK       LGT RAIN  63  63 100 CALM      29.85S
LONGVILLE      LGT RAIN  63  63 100 CALM      29.80F
GRAND RAPIDS   CLOUDY    62  61  96 E5        29.85F
CRANE LAKE     DRIZZLE   59  57  94 CALM      29.90F
ORR            DRIZZLE   61  57  88 CALM      29.85F
COOK           RAIN      61  57  88 E3        29.88S
WALKER         RAIN      64  63  97 E6        29.80F
$$
MNZ012-019>021-037-170300-
   Northeast Minnesota

CITY           SKY/WX    TMP DP  RH WIND       PRES   REMARKS
DULUTH         CLOUDY    60  58  92 E15G24    29.84F
ELY            LGT RAIN  57  55  94 E5        29.89F
HIBBING        LGT RAIN  59  59 100 E5        29.85F FOG
EVELETH        RAIN      60  57  90 NE7       29.87F
DULUTH HARBOR  CLOUDY    63  61  94 NE22      29.84F
GRAND MARAIS     N/A     63  56  78 NE7       29.90F
$$
MNZ029>031-032-039>041-046>048-054>057-064-170300-
   West Central Minnesota

CITY           SKY/WX    TMP DP  RH WIND       PRES   REMARKS
FERGUS FALLS   RAIN      66  66 100 CALM      29.76F
WHEATON        RAIN      66  64  94 N6        29.76F
MORRIS         LGT RAIN  66  66 100 N10       29.72S
ALEXANDRIA     RAIN      65  65 100 NE9       29.77R
ELBOW LAKE     LGT RAIN  65  65 100 NE5       29.75F
WADENA         RAIN      64  64 100 NE5       29.77F
GLENWOOD       DRIZZLE   64  64 100 N14       29.72F
APPLETON       RAIN      68  64  88 N13G20    29.70S
BENSON         RAIN      66  64  94 NE8G22    29.72S
ORTONVILLE     LGT RAIN  66  64  94 MISG      29.73S
MADISON        HVY RAIN  70  70 100 N13       29.70S
WILLMAR        RAIN      68  66  94 N16G26    29.65F
$$
MNZ033>034-036-042>043-049>051-058-059-170300-
   Central Minnesota

CITY           SKY/WX    TMP DP  RH WIND       PRES   REMARKS
ST CLOUD       LGT RAIN  68  68 100 NE10G21   29.68F FOG
SAUK CENTRE    HVY RAIN  65  65  97 NE12      29.72F
PAYNESVILLE    HVY RAIN  67  66  99 NE15G21   29.67F
AITKIN         DRIZZLE   63  61  94 NE7       29.79S
PINE RIVER     RAIN      63  61  94 E6        29.82F
BRAINERD       LGT RAIN  64  62  93 NE12      29.78R
STAPLES        LGT RAIN  64  63  94 NE3       29.78R
LONG PRAIRIE   HVY RAIN  64  63  94 N13       29.74F
LITTLE FALLS   RAIN      63  63 100 NE6       29.75S
LITCHFIELD     RAIN      70  70 100 E13G37    29.62F
BUFFALO        HVY RAIN  70  67  90 NE14G20   29.66F
MAPLE LAKE     RAIN      71  69  95 NE13      29.67F
HUTCHINSON     LGT RAIN  70  68  95 E14       29.61R
$$
MNZ037-044-045-052-053-170300-
   East Central Minnesota

CITY           SKY/WX    TMP DP  RH WIND       PRES   REMARKS
PRINCETON      RAIN      72  68  88 N12       29.69F
MORA           RAIN      64  63  94 NE6       29.75F
RUSH CITY      RAIN      70  66  88 NE9       29.72F
MOOSE LAKE     LGT RAIN  61  59  94 NE8       29.79S
HINCKLEY       LGT RAIN  66  66 100 NE8       29.76F
CLOQUET        CLOUDY    61  57  88 E12       29.84S
MCGREGOR         N/A     63  61  94 NE6       29.81S
$$
MNZ071>073-080-081-089-090-097-098-170300-
   Southwest Minnesota

CITY           SKY/WX    TMP DP  RH WIND       PRES   REMARKS
MONTEVIDEO     RAIN      66  66 100 NE13G18   29.68R
GRANITE FALLS  HVY RAIN  67  66  97 NW20G30   29.67R
CANBY          HVY RAIN  67  65  94 N13       29.72R
MARSHALL       HVY RAIN  66  65  96 N14G25    29.65R FOG
REDWOOD FALLS  CLOUDY    69  67  93 E5        29.58F FOG
OLIVIA         HVY RAIN  70  68  94 NE14G22   29.59F
PIPESTONE      CLOUDY    66  64  94 NW8       29.71R
WINDOM         PTCLDY    68  64  88 S8        29.61S
WORTHINGTON    CLOUDY    66  64  93 W15       29.67R
JACKSON        CLOUDY    68  64  88 SW16G24   29.64S
TRACY          HVY RAIN  67  67 100 N21G35    29.62R
SLAYTON        LGT RAIN  64  60  84 NW16G28   29.66R
$$
MNZ065>067-074>077-082>085-091>093-170300-
   South Central Minnesota

CITY           SKY/WX    TMP DP  RH WIND       PRES   REMARKS
MANKATO        MOCLDY    71  70  96 SE10      29.62F
NEW ULM        CLOUDY    70  66  88 SE8       29.60F
ST JAMES       MOCLDY    70  68  94 SE9       29.61F
FAIRMONT       LGT RAIN  70  67  90 SW15      29.64R
GLENCOE        CLOUDY    70  70 100 E7        29.61F
FARIBAULT      CLOUDY    70  70 100 SE9       29.66R
OWATONNA       CLOUDY    72  70  94 SE9       29.67S
WASECA         CLOUDY    72  70  94 SE7       29.66S
ALBERT LEA     CLEAR     73  73 100 S9        29.66F
$$
MNZ078>079-086>088-094>096-170300-
   Southeast Minnesota

CITY           SKY/WX    TMP DP  RH WIND       PRES   REMARKS
ROCHESTER      LGT RAIN  71  71 100 SW7       29.71R FOG
RED WING       RAIN      73  70  88 MISG      29.67F
STANTON        CLOUDY    72  69  90 SE8       29.64F
DODGE CENTER   CLOUDY    70  68  94 SE7       29.69S
WINONA         CLOUDY    73  72  94 SE9       29.71S
AUSTIN         PTCLDY    72  70  94 S6        29.69R
PRESTON        MOCLDY    71  69  93 S12       29.72R
$$
ABBREVIATIONS USED IN REMARKS
   TC - TEMPERATURES IN CELSIUS
  WCI - WIND CHILL INDEX
   HX - HEAT INDEX
  VSB - VISIBILITY
$$




USA.gov is the U.S. government's official web portal to all federal, state and local government web resources and services.